DECAYED
Showing default

SZ-22, 66645 (Decayed)

Orbit data source: Space-Track

SZ-22, 66645 was a payload satellite owned by ZZHGB (CN) in LEO that was launched on Tue, 25 Nov 2025 UTC via a CHANG ZHENG 2F launch vehicle from the Jiuquan Satellite Launch Center, China (JSC). Payload-class satellites include a variety of spacecraft equipped with specific instruments for various scientific and technological missions. These include communications satellites like Starlink; space stations such as the ISS; scientific satellites like the Hubble; Earth observation satellites from companies like Planet Labs, Umbra, and HawkEye 360; GPS; miniature CubeSats for education and research; and military/defense satellites.

Loading next visibility...
Identifier
66645, 2025-272A
Orbit
Decayed
Country
Flag of CNCN / PRC
Related business
Manufacturer
CALT
Mission
Decayed Civil Spaceship
Bus & Motor
SHENZHOU, Unknown motor
Mass
~8,100 kg wet, 3,258 kg dry
Launch date (UTC)
2025-11-25 (7 months ago)
Launch vehicle
CHANG ZHENG 2F
Launch site
Jiuquan Satellite Launch Center, China (JSC)
Object type
Payload
Rocket body
Debris
Shape & HBR
Cyl + 2 Pan, 14.5 m
Radar Cross Section
39.234 m², Large (>1 m²)

Expand to show TLE details & history
Last TLE update: 3 weeks ago

TLE from 3 weeks ago
0 SZ-22
1 66645U 25272A   26150.95261966  .00020206  00000-0  24547-3 0  9998
2 66645  41.4694  66.8282 0010504 312.1056  47.8889 15.60034833290072
Epoch: 2026-05-30T22:51Z
TLE epoch observation values (Epoch: 2026-05-30T22:51:46.338Z)
Latitude
-0.00003°
Longitude
-164.57617°
Altitude
382.395 km
Speed
7.685 km/s
True Right ascension
04h 27m 18s
True Declination
0° 00' 00"
Sunlit
Object was in daylight at epoch
Visualization orbit readout
Latitude
Unknown
Longitude
Unknown
Altitude
Unknown
Speed
Unknown
Apparent Right ascension
Unknown
Apparent Declination
Unknown
Sunlit
N/A
Visualization observer readout
Local Sidereal Time
08:32:50
Azimuth
Unknown
Elevation
Unknown
Doppler factor
Unknown
Orbital elements
Apogee altitude
396.898 km
Perigee altitude
382.68 km
Semi-major axis
6,767.926 km
Eccentricity
0.00105
Inclination
41.4694°
RAAN
66.8282°
Arg. of periapsis
312.1056°
True anomaly
47.97827°
Mean anomaly
47.8889°
Eccentric anomaly
47.93358°
Mean motion
3.89816 °/min
Orbital period
92.35 mins
BSTAR
0.00024547
Loading maneuver chart data...
Computing Atmospheric mass density...
Loading historical data...
Loading historical data...
Loading historical data...
Loading historical data...
Loading historical data...
Loading historical data...
Loading historical data...
Other satellites on launch #272 in the year 2025 (2025-11-25 UTC)

Documentation

Showing up to 5 results
|